Location: Corte Bragagnani
(45.3000°N, 11.1000°E)
Time: 10:30:05
(UTC+00:00)

Cosmos 1340 Rocket - Pass Details

Date: 09 April 2020
Orbit: 529 x 559 km, 81.2° (Epoch: 24 May)

Event Time Altitude Azimuth Distance (km) Brightness Sun altitude
Rises 19:05:02 0° 188° (S) 2,725 6.2 -12.6°
Reaches altitude 10° 19:07:12 10° 188° (S) 1,832 5.3 -12.9°
Maximum altitude 19:11:15 87° 102° (ESE) 560 2.8 -13.6°
Drops below altitude 10° 19:15:18 10° 11° (NNE) 1,832 5.7 -14.2°
Sets 19:17:27 0° 11° (NNE) 2,725 6.6 -14.5°
